| time (UTC) | temp F | wind direction | speed MPH | gust MPH | rain 1hr in | rain 24hr in | rain mn in | humidity % | barometer mb |
| 20260505180117 | 80 | 146 | 7.0 | 16.0 | 0.00 | 0.00 | 0.00 | 80 | 1009.9 |
| 20260505175615 | 79 | 202 | 7.0 | 16.0 | 0.00 | 0.00 | 0.00 | 81 | 1010.0 |
| 20260505175114 | 79 | 198 | 7.0 | 14.0 | 0.00 | 0.00 | 0.00 | 82 | 1010.0 |
| 20260505174614 | 78 | 225 | 6.0 | 14.0 | 0.00 | 0.00 | 0.00 | 82 | 1010.1 |
| 20260505174340 | 77 | 199 | 6.0 | 14.0 | 0.00 | 0.00 | 0.00 | 84 | 1010.2 |
| 20260505173839 | 77 | 204 | 6.0 | 15.0 | 0.00 | 0.00 | 0.00 | 84 | 1010.3 |
| 20260505173114 | 76 | 189 | 6.0 | 15.0 | 0.00 | 0.00 | 0.00 | 85 | 1010.3 |
| 20260505172612 | 76 | 188 | 6.0 | 12.0 | 0.00 | 0.00 | 0.00 | 85 | 1010.3 |
| 20260505172559 | 76 | 198 | 6.0 | 14.0 | 0.00 | 0.00 | 0.00 | 85 | 1010.3 |
| 20260505171613 | 76 | 243 | 5.0 | 14.0 | 0.00 | 0.00 | 0.00 | 85 | 1010.4 |
| 20260505171112 | 76 | 251 | 5.0 | 12.0 | 0.00 | 0.00 | 0.00 | 86 | 1010.4 |
| 20260505170613 | 75 | 169 | 6.0 | 12.0 | 0.00 | 0.00 | 0.00 | 86 | 1010.4 |
| 20260505170110 | 75 | 217 | 6.0 | 15.0 | 0.00 | 0.00 | 0.00 | 87 | 1010.4 |
| 20260505165611 | 75 | 185 | 6.0 | 15.0 | 0.00 | 0.00 | 0.00 | 87 | 1010.4 |
| 20260505165109 | 75 | 178 | 6.0 | 14.0 | 0.00 | 0.00 | 0.00 | 87 | 1010.3 |
| 20260505164609 | 74 | 213 | 7.0 | 14.0 | 0.00 | 0.00 | 0.00 | 88 | 1010.4 |
| 20260505164109 | 74 | 190 | 6.0 | 13.0 | 0.00 | 0.00 | 0.00 | 88 | 1010.2 |
| 20260505163609 | 74 | 232 | 5.0 | 13.0 | 0.00 | 0.00 | 0.00 | 89 | 1010.3 |
| 20260505163107 | 74 | 158 | 6.0 | 13.0 | 0.00 | 0.00 | 0.00 | 89 | 1010.4 |
| 20260505162608 | 74 | 228 | 6.0 | 13.0 | 0.00 | 0.00 | 0.00 | 89 | 1010.3 |
| 20260505162327 | 74 | 200 | 5.0 | 13.0 | 0.00 | 0.00 | 0.00 | 89 | 1010.4 |
| 20260505161605 | 73 | 236 | 4.0 | 12.0 | 0.00 | 0.00 | 0.00 | 89 | 1010.4 |
| 20260505161106 | 73 | 254 | 5.0 | 14.0 | 0.00 | 0.00 | 0.00 | 90 | 1010.4 |
| 20260505160606 | 73 | 228 | 6.0 | 14.0 | 0.00 | 0.00 | 0.00 | 90 | 1010.4 |
| 20260505160105 | 73 | 215 | 7.0 | 16.0 | 0.00 | 0.00 | 0.00 | 90 | 1010.3 |
| 20260505153106 | 72 | 234 | 5.0 | 11.0 | 0.00 | 0.00 | 0.00 | 91 | 1010.3 |
| 20260505152832 | 72 | 197 | 5.0 | 13.0 | 0.00 | 0.00 | 0.00 | 91 | 1010.2 |
| 20260505152106 | 72 | 165 | 5.0 | 13.0 | 0.00 | 0.00 | 0.00 | 91 | 1010.2 |
| 20260505151607 | 72 | 231 | 6.0 | 13.0 | 0.00 | 0.00 | 0.00 | 91 | 1010.2 |
| 20260505151106 | 72 | 200 | 7.0 | 13.0 | 0.00 | 0.00 | 0.00 | 91 | 1010.2 |
| 20260505150604 | 72 | 198 | 6.0 | 13.0 | 0.00 | 0.00 | 0.00 | 91 | 1010.2 |
| 20260505140536 | 71 | 194 | 7.0 | 16.0 | 0.00 | 0.00 | 0.00 | 92 | 1009.5 |
| 20260505130253 | 71 | 173 | 6.0 | 13.0 | 0.00 | 0.00 | 0.00 | 92 | 1009.1 |
| 20260505125014 | 71 | 200 | 6.0 | 14.0 | 0.00 | 0.00 | 0.00 | 92 | 1009.0 |
| 20260505124513 | 71 | 214 | 6.0 | 14.0 | 0.00 | 0.00 | 0.00 | 92 | 1009.0 |
| 20260505124459 | 71 | 237 | 6.0 | 12.0 | 0.00 | 0.00 | 0.00 | 92 | 1009.0 |
| 20260505123514 | 70 | 192 | 6.0 | 15.0 | 0.00 | 0.00 | 0.00 | 92 | 1008.9 |
| 20260505123013 | 70 | 198 | 6.0 | 15.0 | 0.00 | 0.00 | 0.00 | 92 | 1008.7 |
| 20260505122512 | 70 | 186 | 7.0 | 18.0 | 0.00 | 0.00 | 0.00 | 92 | 1008.7 |
| 20260505122010 | 70 | 173 | 7.0 | 18.0 | 0.00 | 0.00 | 0.00 | 92 | 1008.6 |
| 20260505121510 | 70 | 213 | 6.0 | 12.0 | 0.00 | 0.00 | 0.00 | 92 | 1008.4 |
| 20260505121010 | 70 | 173 | 6.0 | 12.0 | 0.00 | 0.00 | 0.00 | 92 | 1008.4 |
| 20260505120509 | 70 | 192 | 6.0 | 12.0 | 0.00 | 0.00 | 0.00 | 92 | 1008.3 |
| 20260505120010 | 70 | 177 | 5.0 | 11.0 | 0.00 | 0.00 | 0.00 | 92 | 1008.4 |
| 20260505115507 | 70 | 180 | 5.0 | 10.0 | 0.00 | 0.00 | 0.00 | 92 | 1008.3 |
| 20260505115008 | 70 | 198 | 7.0 | 14.0 | 0.00 | 0.00 | 0.00 | 92 | 1008.2 |
| 20260505114508 | 70 | 208 | 7.0 | 14.0 | 0.00 | 0.00 | 0.00 | 92 | 1008.2 |
| 20260505114007 | 70 | 157 | 6.0 | 13.0 | 0.00 | 0.00 | 0.00 | 92 | 1008.2 |
| 20260505113506 | 70 | 142 | 6.0 | 12.0 | 0.00 | 0.00 | 0.00 | 92 | 1008.2 |
| 20260505113006 | 70 | 156 | 5.0 | 14.0 | 0.00 | 0.00 | 0.00 | 92 | 1008.2 |
| 20260505112503 | 70 | 169 | 5.0 | 14.0 | 0.00 | 0.00 | 0.00 | 92 | 1008.2 |
| 20260505112002 | 70 | 190 | 5.0 | 13.0 | 0.00 | 0.00 | 0.00 | 92 | 1008.3 |
| 20260505111501 | 70 | 202 | 5.0 | 11.0 | 0.00 | 0.00 | 0.00 | 92 | 1008.2 |
| 20260505111002 | 70 | 193 | 5.0 | 13.0 | 0.00 | 0.00 | 0.00 | 92 | 1008.2 |
| 20260505110503 | 70 | 155 | 5.0 | 13.0 | 0.00 | 0.00 | 0.00 | 92 | 1008.2 |
| 20260505102001 | 70 | 188 | 6.0 | 14.0 | 0.00 | 0.00 | 0.00 | 92 | 1008.3 |
| 20260505101501 | 70 | 184 | 6.0 | 13.0 | 0.00 | 0.00 | 0.00 | 92 | 1008.4 |
| 20260505101001 | 70 | 191 | 6.0 | 13.0 | 0.00 | 0.00 | 0.00 | 92 | 1008.4 |
| 20260505100723 | 70 | 228 | 7.0 | 15.0 | 0.00 | 0.00 | 0.00 | 91 | 1008.4 |
| 20260505100001 | 70 | 192 | 7.0 | 15.0 | 0.00 | 0.00 | 0.00 | 91 | 1008.4 |
| 20260505095729 | 70 | 194 | 6.0 | 14.0 | 0.00 | 0.00 | 0.00 | 91 | 1008.5 |
| 20260505095002 | 70 | 164 | 6.0 | 17.0 | 0.00 | 0.00 | 0.00 | 91 | 1008.6 |
| 20260505094501 | 70 | 225 | 7.0 | 17.0 | 0.00 | 0.00 | 0.00 | 91 | 1008.5 |
| 20260505094001 | 70 | 159 | 7.0 | 14.0 | 0.00 | 0.00 | 0.00 | 91 | 1008.5 |
| 20260505093502 | 70 | 182 | 6.0 | 13.0 | 0.00 | 0.00 | 0.00 | 91 | 1008.5 |
| 20260505093001 | 70 | 159 | 6.0 | 16.0 | 0.00 | 0.00 | 0.00 | 91 | 1008.5 |
| 20260505092727 | 70 | 207 | 6.0 | 16.0 | 0.00 | 0.00 | 0.00 | 91 | 1008.6 |
| 20260505092001 | 70 | 177 | 6.0 | 15.0 | 0.00 | 0.00 | 0.00 | 91 | 1008.5 |
| 20260505091501 | 70 | 203 | 7.0 | 15.0 | 0.00 | 0.00 | 0.00 | 91 | 1008.6 |
| 20260505091001 | 70 | 162 | 6.0 | 15.0 | 0.00 | 0.00 | 0.00 | 91 | 1008.6 |
| 20260505090500 | 70 | 203 | 6.0 | 13.0 | 0.00 | 0.00 | 0.00 | 91 | 1008.7 |
| 20260505090001 | 70 | 206 | 6.0 | 13.0 | 0.00 | 0.00 | 0.00 | 91 | 1008.8 |
| 20260505085501 | 70 | 146 | 5.0 | 11.0 | 0.00 | 0.00 | 0.00 | 91 | 1008.8 |
| 20260505085002 | 70 | 186 | 5.0 | 11.0 | 0.00 | 0.00 | 0.00 | 91 | 1008.8 |
| 20260505084501 | 70 | 177 | 6.0 | 14.0 | 0.00 | 0.00 | 0.00 | 91 | 1008.8 |
| 20260505084001 | 70 | 225 | 6.0 | 14.0 | 0.00 | 0.00 | 0.00 | 91 | 1008.9 |
| 20260505083501 | 70 | 211 | 6.0 | 12.0 | 0.00 | 0.00 | 0.00 | 91 | 1008.9 |
| 20260505083001 | 70 | 189 | 5.0 | 12.0 | 0.00 | 0.00 | 0.00 | 91 | 1008.9 |
| 20260505082502 | 70 | 199 | 6.0 | 16.0 | 0.00 | 0.00 | 0.00 | 91 | 1008.9 |
| 20260505082001 | 70 | 197 | 7.0 | 19.0 | 0.00 | 0.00 | 0.00 | 91 | 1008.7 |
| 20260505081502 | 70 | 170 | 7.0 | 19.0 | 0.00 | 0.00 | 0.00 | 91 | 1008.9 |
| 20260505081001 | 70 | 194 | 7.0 | 15.0 | 0.00 | 0.00 | 0.00 | 91 | 1009.0 |
| 20260505080502 | 70 | 211 | 6.0 | 16.0 | 0.00 | 0.00 | 0.00 | 90 | 1009.0 |
| 20260505080001 | 70 | 192 | 7.0 | 16.0 | 0.00 | 0.00 | 0.00 | 91 | 1009.0 |
| 20260505075508 | 71 | 196 | 7.0 | 16.0 | 0.00 | 0.00 | 0.00 | 91 | 1009.0 |
| 20260505075004 | 71 | 208 | 7.0 | 16.0 | 0.00 | 0.00 | 0.00 | 91 | 1009.2 |
| 20260505074459 | 71 | 165 | 8.0 | 15.0 | 0.00 | 0.00 | 0.00 | 90 | 1009.2 |
| 20260505073953 | 71 | 188 | 8.0 | 15.0 | 0.00 | 0.00 | 0.00 | 90 | 1009.2 |
| 20260505073440 | 71 | 210 | 8.0 | 17.0 | 0.00 | 0.00 | 0.00 | 90 | 1009.4 |
| 20260505073219 | 71 | 238 | 8.0 | 17.0 | 0.00 | 0.00 | 0.00 | 90 | 1009.4 |
| 20260505072445 | 71 | 188 | 8.0 | 17.0 | 0.00 | 0.00 | 0.00 | 90 | 1009.4 |
| 20260505071944 | 71 | 188 | 9.0 | 19.0 | 0.00 | 0.00 | 0.00 | 90 | 1009.4 |
| 20260505071441 | 71 | 180 | 9.0 | 19.0 | 0.00 | 0.00 | 0.00 | 90 | 1009.5 |
| 20260505070941 | 71 | 184 | 7.0 | 17.0 | 0.00 | 0.00 | 0.00 | 90 | 1009.6 |
| 20260505070440 | 71 | 198 | 6.0 | 17.0 | 0.00 | 0.00 | 0.00 | 90 | 1009.9 |
| 20260505065936 | 71 | 175 | 6.0 | 15.0 | 0.00 | 0.00 | 0.00 | 90 | 1009.9 |
| 20260505065435 | 71 | 162 | 7.0 | 16.0 | 0.00 | 0.00 | 0.00 | 90 | 1010.0 |
| 20260505064932 | 71 | 201 | 7.0 | 18.0 | 0.00 | 0.00 | 0.00 | 90 | 1010.1 |
| 20260505064432 | 71 | 172 | 8.0 | 18.0 | 0.00 | 0.00 | 0.00 | 90 | 1010.2 |
| 20260505063932 | 71 | 151 | 7.0 | 21.0 | 0.00 | 0.00 | 0.00 | 90 | 1010.3 |
| 20260505063433 | 71 | 184 | 8.0 | 21.0 | 0.00 | 0.00 | 0.00 | 89 | 1010.2 |
| 20260505062931 | 71 | 170 | 8.0 | 16.0 | 0.00 | 0.00 | 0.00 | 89 | 1010.1 |
| 20260505062429 | 71 | 205 | 7.0 | 20.0 | 0.00 | 0.00 | 0.00 | 89 | 1010.2 |
| 20260505061931 | 71 | 141 | 7.0 | 20.0 | 0.00 | 0.00 | 0.00 | 89 | 1010.5 |
| 20260505061430 | 71 | 192 | 7.0 | 24.0 | 0.00 | 0.00 | 0.00 | 89 | 1010.5 |
| 20260505061152 | 71 | 152 | 8.0 | 24.0 | 0.00 | 0.00 | 0.00 | 89 | 1010.6 |
| 20260505060650 | 71 | 181 | 7.0 | 16.0 | 0.00 | 0.00 | 0.00 | 89 | 1010.6 |
| 20260505055930 | 71 | 157 | 7.0 | 15.0 | 0.00 | 0.00 | 0.00 | 89 | 1010.6 |
| 20260505055701 | 71 | 179 | 7.0 | 19.0 | 0.00 | 0.00 | 0.00 | 89 | 1010.7 |
| 20260505054929 | 71 | 188 | 8.0 | 19.0 | 0.00 | 0.00 | 0.00 | 89 | 1010.5 |
| 20260505054651 | 71 | 174 | 8.0 | 18.0 | 0.00 | 0.00 | 0.00 | 89 | 1010.5 |
| 20260505053929 | 71 | 215 | 8.0 | 18.0 | 0.00 | 0.00 | 0.00 | 89 | 1010.5 |
| 20260505053430 | 71 | 157 | 7.0 | 15.0 | 0.00 | 0.00 | 0.00 | 89 | 1010.6 |
| 20260505052929 | 71 | 167 | 8.0 | 20.0 | 0.00 | 0.00 | 0.00 | 89 | 1010.5 |
| 20260505052429 | 71 | 181 | 8.0 | 20.0 | 0.00 | 0.00 | 0.00 | 89 | 1010.5 |
| 20260505051929 | 71 | 150 | 7.0 | 17.0 | 0.00 | 0.00 | 0.00 | 89 | 1010.4 |
| 20260505051429 | 71 | 161 | 7.0 | 17.0 | 0.00 | 0.00 | 0.00 | 89 | 1010.5 |
| 20260505050928 | 71 | 208 | 7.0 | 16.0 | 0.00 | 0.00 | 0.00 | 89 | 1010.6 |
| 20260505050429 | 71 | 166 | 7.0 | 15.0 | 0.00 | 0.00 | 0.00 | 89 | 1010.5 |
| 20260505041700 | 72 | 167 | 7.0 | 19.0 | 0.00 | 0.00 | 0.00 | 86 | 1010.3 |
| 20260505040929 | 73 | 188 | 6.0 | 13.0 | 0.00 | 0.00 | 0.00 | 86 | 1010.2 |
| 20260505040429 | 73 | 191 | 7.0 | 14.0 | 0.00 | 0.00 | 0.00 | 86 | 1010.3 |
| 20260505035929 | 73 | 187 | 7.0 | 15.0 | 0.00 | 0.00 | 0.00 | 85 | 1010.3 |
| 20260505035429 | 73 | 178 | 6.0 | 15.0 | 0.00 | 0.00 | 0.00 | 85 | 1010.3 |
| 20260505034930 | 73 | 188 | 6.0 | 14.0 | 0.00 | 0.00 | 0.00 | 85 | 1010.3 |
| 20260505034926 | 73 | 180 | 6.0 | 14.0 | 0.00 | 0.00 | 0.00 | 84 | 1010.3 |
| 20260505033928 | 73 | 148 | 5.0 | 11.0 | 0.00 | 0.00 | 0.00 | 84 | 1010.2 |
| 20260505033429 | 73 | 196 | 4.0 | 10.0 | 0.00 | 0.00 | 0.00 | 84 | 1010.3 |
| 20260505032929 | 73 | 173 | 5.0 | 12.0 | 0.00 | 0.00 | 0.00 | 83 | 1010.3 |
| 20260505032653 | 73 | 190 | 6.0 | 12.0 | 0.00 | 0.00 | 0.00 | 83 | 1010.3 |
| 20260505031928 | 73 | 161 | 5.0 | 14.0 | 0.00 | 0.00 | 0.00 | 82 | 1010.2 |
| 20260505031430 | 74 | 175 | 6.0 | 14.0 | 0.00 | 0.00 | 0.00 | 82 | 1010.2 |
| 20260505030929 | 74 | 187 | 7.0 | 17.0 | 0.00 | 0.00 | 0.00 | 82 | 1010.3 |
| 20260505030429 | 74 | 168 | 7.0 | 17.0 | 0.00 | 0.00 | 0.00 | 81 | 1010.3 |
| 20260505025929 | 74 | 174 | 7.0 | 17.0 | 0.00 | 0.00 | 0.00 | 81 | 1010.3 |
| 20260505025430 | 74 | 182 | 6.0 | 14.0 | 0.00 | 0.00 | 0.00 | 81 | 1010.3 |
| 20260505024929 | 74 | 170 | 6.0 | 14.0 | 0.00 | 0.00 | 0.00 | 81 | 1010.2 |
| 20260505024429 | 74 | 196 | 6.0 | 16.0 | 0.00 | 0.00 | 0.00 | 80 | 1010.3 |
| 20260505023929 | 74 | 165 | 6.0 | 16.0 | 0.00 | 0.00 | 0.00 | 80 | 1010.4 |
| 20260505023429 | 74 | 182 | 5.0 | 10.0 | 0.00 | 0.00 | 0.00 | 80 | 1010.4 |
| 20260505022928 | 74 | 188 | 5.0 | 11.0 | 0.00 | 0.00 | 0.00 | 79 | 1010.4 |
| 20260505022429 | 74 | 174 | 5.0 | 15.0 | 0.00 | 0.00 | 0.00 | 79 | 1010.4 |
| 20260505021924 | 75 | 175 | 5.0 | 15.0 | 0.00 | 0.00 | 0.00 | 79 | 1010.4 |
| 20260505021909 | 75 | 201 | 6.0 | 15.0 | 0.00 | 0.00 | 0.00 | 78 | 1010.3 |
| 20260505020915 | 75 | 202 | 6.0 | 15.0 | 0.00 | 0.00 | 0.00 | 78 | 1010.4 |
| 20260505020415 | 75 | 161 | 5.0 | 11.0 | 0.00 | 0.00 | 0.00 | 77 | 1010.2 |
| 20260505015913 | 75 | 200 | 5.0 | 12.0 | 0.00 | 0.00 | 0.00 | 77 | 1010.0 |
| 20260505015412 | 75 | 182 | 4.0 | 12.0 | 0.00 | 0.00 | 0.00 | 76 | 1010.1 |
| 20260505014913 | 75 | 157 | 4.0 | 9.0 | 0.00 | 0.00 | 0.00 | 76 | 1010.2 |
| 20260505014413 | 75 | 164 | 4.0 | 9.0 | 0.00 | 0.00 | 0.00 | 75 | 1010.2 |
| 20260505013912 | 75 | 150 | 4.0 | 14.0 | 0.00 | 0.00 | 0.00 | 75 | 1010.2 |
| 20260505013412 | 75 | 140 | 4.0 | 14.0 | 0.00 | 0.00 | 0.00 | 75 | 1010.2 |
| 20260505012909 | 76 | 177 | 5.0 | 14.0 | 0.00 | 0.00 | 0.00 | 75 | 1010.1 |
| 20260505012409 | 76 | 170 | 5.0 | 14.0 | 0.00 | 0.00 | 0.00 | 74 | 1010.1 |
| 20260505011909 | 76 | 157 | 5.0 | 11.0 | 0.00 | 0.00 | 0.00 | 74 | 1010.0 |
| 20260505011407 | 76 | 184 | 4.0 | 10.0 | 0.00 | 0.00 | 0.00 | 74 | 1010.1 |
| 20260505010907 | 76 | 200 | 5.0 | 10.0 | 0.00 | 0.00 | 0.00 | 74 | 1010.1 |
| 20260505010644 | 76 | 183 | 5.0 | 11.0 | 0.00 | 0.00 | 0.00 | 73 | 1010.1 |
| 20260505005906 | 77 | 157 | 6.0 | 14.0 | 0.00 | 0.00 | 0.00 | 73 | 1010.1 |
| 20260505005407 | 77 | 202 | 6.0 | 16.0 | 0.00 | 0.00 | 0.00 | 72 | 1010.1 |
| 20260505005130 | 77 | 183 | 6.0 | 16.0 | 0.00 | 0.00 | 0.00 | 72 | 1010.1 |
| 20260505004403 | 77 | 192 | 6.0 | 12.0 | 0.00 | 0.00 | 0.00 | 72 | 1010.2 |
| 20260505003901 | 78 | 178 | 8.0 | 18.0 | 0.00 | 0.00 | 0.00 | 71 | 1010.2 |
| 20260505003402 | 78 | 152 | 9.0 | 18.0 | 0.00 | 0.00 | 0.00 | 71 | 1010.2 |
| 20260505002900 | 78 | 140 | 7.0 | 18.0 | 0.00 | 0.00 | 0.00 | 71 | 1010.1 |
| 20260505002401 | 78 | 204 | 5.0 | 18.0 | 0.00 | 0.00 | 0.00 | 71 | 1010.2 |
| 20260505002125 | 78 | 173 | 7.0 | 16.0 | 0.00 | 0.00 | 0.00 | 71 | 1010.1 |
| 20260505001401 | 79 | 167 | 8.0 | 19.0 | 0.00 | 0.00 | 0.00 | 70 | 1010.1 |
| 20260505000902 | 79 | 164 | 8.0 | 19.0 | 0.00 | 0.00 | 0.00 | 70 | 1010.0 |
| 20260505000401 | 79 | 177 | 9.0 | 18.0 | 0.00 | 0.00 | 0.00 | 69 | 1009.9 |
| 20260504235902 | 80 | 148 | 8.0 | 20.0 | 0.00 | 0.00 | 0.00 | 69 | 1009.9 |
| 20260504235402 | 80 | 182 | 8.0 | 20.0 | 0.00 | 0.00 | 0.00 | 68 | 1010.0 |
| 20260504234902 | 80 | 173 | 8.0 | 19.0 | 0.00 | 0.00 | 0.00 | 68 | 1010.1 |
| 20260504234401 | 80 | 196 | 9.0 | 20.0 | 0.00 | 0.00 | 0.00 | 69 | 1010.1 |
| 20260504233901 | 80 | 170 | 9.0 | 20.0 | 0.00 | 0.00 | 0.00 | 68 | 1010.2 |
| 20260504233629 | 80 | 165 | 8.0 | 17.0 | 0.00 | 0.00 | 0.00 | 68 | 1010.2 |
| 20260504232901 | 80 | 193 | 8.0 | 17.0 | 0.00 | 0.00 | 0.00 | 68 | 1010.2 |
| 20260504232401 | 81 | 157 | 8.0 | 17.0 | 0.00 | 0.00 | 0.00 | 68 | 1010.2 |
| 20260504231901 | 81 | 195 | 8.0 | 18.0 | 0.00 | 0.00 | 0.00 | 67 | 1010.4 |
| 20260504231626 | 81 | 184 | 8.0 | 18.0 | 0.00 | 0.00 | 0.00 | 67 | 1010.4 |
| 20260504230852 | 81 | 148 | 8.0 | 19.0 | 0.00 | 0.00 | 0.00 | 67 | 1010.3 |
| 20260504230346 | 82 | 174 | 8.0 | 19.0 | 0.00 | 0.00 | 0.00 | 67 | 1010.4 |
| 20260504225840 | 82 | 144 | 8.0 | 18.0 | 0.00 | 0.00 | 0.00 | 66 | 1010.4 |
| 20260504225611 | 82 | 180 | 8.0 | 18.0 | 0.00 | 0.00 | 0.00 | 66 | 1010.4 |
| 20260504224834 | 82 | 166 | 9.0 | 18.0 | 0.00 | 0.00 | 0.00 | 66 | 1010.5 |
| 20260504224334 | 82 | 178 | 8.0 | 17.0 | 0.00 | 0.00 | 0.00 | 65 | 1010.4 |
| 20260504223835 | 83 | 138 | 7.0 | 16.0 | 0.00 | 0.00 | 0.00 | 66 | 1010.5 |
| 20260504223333 | 82 | 175 | 8.0 | 17.0 | 0.00 | 0.00 | 0.00 | 65 | 1010.6 |
| 20260504222832 | 82 | 160 | 10.0 | 19.0 | 0.00 | 0.00 | 0.00 | 65 | 1010.6 |
| 20260504222332 | 82 | 174 | 9.0 | 19.0 | 0.00 | 0.00 | 0.00 | 65 | 1010.7 |
| 20260504222110 | 82 | 149 | 8.0 | 19.0 | 0.00 | 0.00 | 0.00 | 65 | 1010.6 |
| 20260504221332 | 83 | 217 | 9.0 | 19.0 | 0.00 | 0.00 | 0.00 | 65 | 1010.7 |
| 20260504220831 | 83 | 147 | 9.0 | 15.0 | 0.00 | 0.00 | 0.00 | 64 | 1010.7 |
| 20260504220330 | 83 | 150 | 8.0 | 15.0 | 0.00 | 0.00 | 0.00 | 65 | 1010.8 |
| 20260504215829 | 83 | 168 | 9.0 | 17.0 | 0.00 | 0.00 | 0.00 | 65 | 1010.7 |
| 20260504215329 | 83 | 198 | 7.0 | 17.0 | 0.00 | 0.00 | 0.00 | 65 | 1010.8 |
| 20260504214829 | 82 | 157 | 8.0 | 21.0 | 0.00 | 0.00 | 0.00 | 65 | 1010.9 |
| 20260504214330 | 83 | 144 | 9.0 | 21.0 | 0.00 | 0.00 | 0.00 | 65 | 1010.9 |
| 20260504213828 | 83 | 178 | 8.0 | 22.0 | 0.00 | 0.00 | 0.00 | 65 | 1011.0 |
| 20260504213330 | 82 | 109 | 8.0 | 22.0 | 0.00 | 0.00 | 0.00 | 66 | 1011.1 |
| 20260504212829 | 83 | 167 | 8.0 | 19.0 | 0.00 | 0.00 | 0.00 | 65 | 1011.0 |
| 20260504212328 | 83 | 187 | 9.0 | 19.0 | 0.00 | 0.00 | 0.00 | 65 | 1011.2 |
| 20260504211822 | 82 | 169 | 9.0 | 19.0 | 0.00 | 0.00 | 0.00 | 65 | 1011.3 |
| 20260504211320 | 82 | 182 | 10.0 | 19.0 | 0.00 | 0.00 | 0.00 | 66 | 1011.5 |
| 20260504210820 | 82 | 186 | 9.0 | 19.0 | 0.00 | 0.00 | 0.00 | 64 | 1011.5 |
| 20260504210544 | 82 | 172 | 8.0 | 17.0 | 0.00 | 0.00 | 0.00 | 65 | 1011.7 |
| 20260504205820 | 82 | 130 | 9.0 | 17.0 | 0.00 | 0.00 | 0.00 | 67 | 1011.6 |
| 20260504205320 | 82 | 169 | 9.0 | 18.0 | 0.00 | 0.00 | 0.00 | 67 | 1011.8 |
| 20260504204820 | 82 | 171 | 9.0 | 18.0 | 0.00 | 0.00 | 0.00 | 66 | 1011.8 |
| 20260504204320 | 81 | 192 | 9.0 | 16.0 | 0.00 | 0.00 | 0.00 | 67 | 1012.0 |
| 20260504203820 | 81 | 169 | 8.0 | 17.0 | 0.00 | 0.00 | 0.00 | 68 | 1012.1 |
| 20260504203319 | 81 | 125 | 9.0 | 20.0 | 0.00 | 0.00 | 0.00 | 65 | 1012.1 |
| 20260504202818 | 82 | 153 | 9.0 | 20.0 | 0.00 | 0.00 | 0.00 | 65 | 1012.1 |
| 20260504202318 | 82 | 165 | 8.0 | 16.0 | 0.00 | 0.00 | 0.00 | 66 | 1012.1 |
| 20260504201819 | 81 | 163 | 7.0 | 16.0 | 0.00 | 0.00 | 0.00 | 67 | 1012.3 |
| 20260504201559 | 81 | 192 | 7.0 | 17.0 | 0.00 | 0.00 | 0.00 | 67 | 1012.4 |
| 20260504200818 | 81 | 211 | 7.0 | 17.0 | 0.00 | 0.00 | 0.00 | 66 | 1012.5 |
| 20260504200316 | 81 | 152 | 8.0 | 16.0 | 0.00 | 0.00 | 0.00 | 66 | 1012.6 |
| 20260504195816 | 81 | 113 | 8.0 | 19.0 | 0.00 | 0.00 | 0.00 | 67 | 1012.8 |
| 20260504195310 | 81 | 201 | 7.0 | 19.0 | 0.00 | 0.00 | 0.00 | 67 | 1012.7 |
| 20260504195027 | 80 | 176 | 8.0 | 20.0 | 0.00 | 0.00 | 0.00 | 66 | 1012.9 |
| 20260504194304 | 81 | 182 | 7.0 | 20.0 | 0.00 | 0.00 | 0.00 | 66 | 1013.2 |
| 20260504193804 | 81 | 189 | 8.0 | 17.0 | 0.00 | 0.00 | 0.00 | 67 | 1013.2 |
| 20260504193532 | 80 | 174 | 8.0 | 17.0 | 0.00 | 0.00 | 0.00 | 67 | 1013.4 |
| 20260504192804 | 80 | 217 | 7.0 | 17.0 | 0.00 | 0.00 | 0.00 | 68 | 1013.3 |
| 20260504192304 | 80 | 180 | 8.0 | 17.0 | 0.00 | 0.00 | 0.00 | 69 | 1013.4 |
| 20260504191805 | 79 | 178 | 8.0 | 18.0 | 0.00 | 0.00 | 0.00 | 69 | 1013.6 |
| 20260504191526 | 79 | 172 | 9.0 | 18.0 | 0.00 | 0.00 | 0.00 | 69 | 1013.7 |
| 20260504190805 | 79 | 186 | 8.0 | 17.0 | 0.00 | 0.00 | 0.00 | 68 | 1013.7 |
| 20260504190304 | 79 | 168 | 8.0 | 18.0 | 0.00 | 0.00 | 0.00 | 69 | 1013.9 |
| 20260504185804 | 78 | 179 | 7.0 | 18.0 | 0.00 | 0.00 | 0.00 | 69 | 1014.0 |
| 20260504185304 | 78 | 182 | 6.0 | 15.0 | 0.00 | 0.00 | 0.00 | 69 | 1014.1 |
| 20260504184804 | 78 | 198 | 7.0 | 18.0 | 0.00 | 0.00 | 0.00 | 69 | 1014.0 |
| 20260504184304 | 78 | 197 | 7.0 | 18.0 | 0.00 | 0.00 | 0.00 | 70 | 1014.1 |
| 20260504184028 | 78 | 240 | 7.0 | 15.0 | 0.00 | 0.00 | 0.00 | 69 | 1014.0 |
| 20260504183304 | 78 | 204 | 7.0 | 13.0 | 0.00 | 0.00 | 0.00 | 70 | 1014.1 |
| 20260504182804 | 78 | 167 | 8.0 | 18.0 | 0.00 | 0.00 | 0.00 | 70 | 1014.2 |
| 20260504182304 | 78 | 217 | 8.0 | 18.0 | 0.00 | 0.00 | 0.00 | 70 | 1014.4 |
| 20260504182255 | 77 | 163 | 9.0 | 16.0 | 0.00 | 0.00 | 0.00 | 70 | 1014.6 |
| 20260504181305 | 77 | 207 | 9.0 | 20.0 | 0.00 | 0.00 | 0.00 | 71 | 1014.5 |
| 20260504180804 | 77 | 172 | 8.0 | 20.0 | 0.00 | 0.00 | 0.00 | 71 | 1014.7 |
| 20260504180305 | 77 | 162 | 8.0 | 16.0 | 0.00 | 0.00 | 0.00 | 72 | 1014.7 |